Location: Plateau_FTFHS
(35.6000°N, 81.3500°W)
Time: 18:30:46
(UTC-04:00)

Daily predictions for brighter satellites

Satellite Brightness Start Highest point End
(mag) Time Altitude Azimuth Time Altitude Azimuth Time Altitude Azimuth
ATLAS CENTAUR R/B 3.3 19:26:15 10° S 19:30:08 46° ESE 19:40:43 10° NE
Cosmos 2233 Rocket 4.0 19:30:19 10° S 19:36:36 78° E 19:42:55 10° N
USA 215 3.3 19:33:57 10° NE 19:40:30 73° SE 19:46:59 10° SW
Cosmos 1441 Rocket 3.1 19:37:13 10° N 19:40:56 65° E 19:44:38 10° SSE
Cosmos 2278 Rocket 2.2 19:36:08 10° NNW 19:41:47 71° ENE 19:47:25 10° SSE
Meteor 2-5 Rocket 3.7 19:37:26 10° N 19:43:04 80° E 19:48:36 10° S
Meteor 1-29 4.4 19:42:32 10° NE 19:45:05 19° E 19:47:37 10° SE
Cosmos 2297 4.3 19:40:07 10° N 19:45:19 36° ENE 19:50:28 10° SE
Meteor 1-24 Rocket 3.9 19:42:11 10° N 19:47:38 48° ENE 19:52:52 10° SSE
Meteor 1-28 Rocket 3.3 19:44:22 10° NNE 19:48:00 53° E 19:51:38 10° S
Cosmos 1378 4.0 19:45:47 10° NNE 19:49:03 28° ENE 19:52:18 10° SE
SJ-6B 3.0 19:46:32 10° SSE 19:50:20 52° ENE 19:54:16 10° N
Cosmos 1707 2.7 19:47:55 10° N 19:51:47 84° E 19:55:37 10° S
Cosmos-2242 4.3 19:50:57 10° SE 19:54:05 20° E 19:57:13 10° NE
Cosmos 1758 4.5 19:54:36 10° SE 19:57:49 23° E 20:01:03 10° NE
Helios 1B rocket 2.7 19:57:54 10° NNE 20:01:50 43° E 20:05:45 10° S
SEDSat Delta rocket 4.4 19:58:12 10° WSW 20:04:42 54° SSE 20:10:14 15° E
SeaSat 1 3.6 20:01:25 10° ENE 20:05:11 22° ESE 20:08:55 10° SSE
Cosmos 1408 Rocket 4.3 20:02:31 10° NNE 20:06:25 31° ENE 20:10:15 10° SE
Resurs 01 Rocket 1.9 20:03:27 10° SE 20:07:41 45° ENE 20:11:57 10° N
NOSS 3-2 (A) 3.4 20:03:33 10° SSW 20:09:32 84° ESE 20:16:02 10° NNE
SAR-Lupe-4 4.0 20:06:05 10° S 20:09:36 64° WSW 20:13:10 10° NNW
Cosmos 2333 Rocket 4.1 20:05:16 10° SW 20:10:24 33° WNW 20:15:34 10° N
Resurs 1-3 4.1 20:07:43 10° SE 20:11:46 38° ENE 20:15:51 10° N
Okean 3 Rocket 3.7 20:08:23 10° N 20:12:57 87° W 20:17:30 10° S
CZ-4B DEB 4.1 20:15:35 21° E 20:15:57 22° ENE 20:18:32 10° NNE
Spot 1 4.2 20:13:03 10° SSE 20:17:54 75° ENE 20:22:30 10° N
Atlas Centaur 2 3.5 20:14:54 10° W 20:23:09 53° SSW 20:28:58 18° ESE
ATLAS CENTAUR R/B 1.4 20:21:07 10° NNW 20:25:15 75° WSW 20:28:48 12° SSE
BREEZE-M DEB (TANK) 4.4 20:21:52 10° WNW 20:25:50 69° SW 20:40:14 10° SE
GPS 2-04 Rocket1 3.9 20:24:41 10° SSW 20:27:24 21° SSE 20:27:40 21° SE
ALOS 2.6 20:26:02 16° SE 20:29:29 43° ENE 20:33:54 10° N
Cosmos 1743 Rocket 4.4 20:29:15 10° NNE 20:33:10 29° ENE 20:33:29 29° E
In-Cosmos 22 4.2 20:28:04 10° N 20:33:48 64° E 20:39:28 10° SSE
Nadezhda 4 Rocket 4.3 20:28:31 10° N 20:34:26 42° ENE 20:38:48 17° SE
FREGAT/IRIS 4.3 20:34:29 10° SSW 20:37:21 35° W 20:40:14 10° NNW
Spot 2 Rocket 3.5 20:32:19 10° SSE 20:37:21 82° WSW 20:42:26 10° NNW
ASTRO E2 3.2 20:33:55 10° WSW 20:37:48 45° S 20:38:55 35° SE
Cosmos 2056 Rocket 4.2 20:38:03 10° NNW 20:43:22 56° WSW 20:48:38 10° S
NOSS 3-3 (A) 4.5 20:36:03 10° NNW 20:43:33 67° NE 20:48:48 23° SE
NOSS 3-3 (C) 4.5 20:36:09 10° NNW 20:43:39 66° ENE 20:48:51 23° SE
OAO 3 Rocket 3.1 20:39:31 10° W 20:44:18 81° S 20:46:04 39° E
Helios 1A 3.2 20:41:22 10° S 20:45:31 70° WSW 20:49:42 10° NNW
NOSS 3-2 (C) 3.8 20:40:35 10° SW 20:46:33 67° NW 20:53:03 10° NNE
CENTAUR R/B 3.2 20:44:49 10° S 20:48:51 29° SE 20:48:51 29° SE
Cosmos 1634 Rocket 4.5 20:49:15 33° ESE 20:50:20 35° E 20:55:53 10° NNE
ATLAS 5 CENTAUR R/B 2.1 20:46:05 10° SW 20:50:46 68° WNW 20:55:50 10° NNE
CZ-2D R/B 3.2 20:52:08 58° E 20:52:23 60° ENE 20:56:14 10° N
Cosmos 1953 2.6 20:49:17 10° SSW 20:53:14 67° W 20:57:13 10° N
ASTEX 1 3.3 20:48:47 10° NNE 20:53:40 65° E 20:58:30 10° S
Meteor 2-12 Rocket 4.4 20:50:56 10° S 20:57:06 85° W 21:03:17 10° N
SL-16 R/B 3.8 20:52:08 10° SW 20:57:20 36° WNW 21:02:34 10° N
Cosmos 2034 Rocket 4.4 20:55:14 10° SSW 21:01:24 66° W 21:07:42 10° N
Cosmos 1766 Rocket 4.5 21:04:18 10° NNW 21:08:30 47° W 21:12:39 10° SSW
H-2A R/B 2.9 21:12:11 75° W 21:12:11 75° W 21:16:02 10° NNW
SL-8 R/B 3.7 21:14:48 10° SW 21:19:08 73° SSW 21:19:08 73° SSW
FENGYUN 3A 4.4 21:25:39 17° S 21:29:32 49° W 21:34:45 10° NNW
ERS-1 Rocket 4.2 21:34:40 31° N 21:34:40 31° N 21:37:25 10° N
SeaSat 1 3.6 21:38:08 10° N 21:42:47 42° WNW 21:47:24 10° SW
Cosmos 2369 Rocket 3.3 21:40:12 10° N 21:43:36 34° N 21:43:36 34° N
SEDSat Delta rocket 4.3 21:44:30 10° W 21:50:22 56° SW 21:50:22 56° SW
Cosmos 1943 Rocket 4.3 21:52:27 10° N 21:53:53 16° NNE 21:53:53 16° NNE
BREEZE-M DEB (TANK) 4.5 21:54:05 10° SW 22:08:59 61° SSW 22:08:59 61° SSW
Atlas Centaur 2 4.1 22:05:31 10° W 22:11:38 28° SW 22:11:38 28° SW
CENTAUR R/B 4.5 22:34:41 10° WSW 22:47:41 - NNE 22:36:16 18° WSW
